Zurück zum Katalog

CZ-4C DEB

AktivSSO
NORAD 55837·DEBRIS·🇨🇳 China

Gestartet Mar 9, 2023 von Taiyuan Satellite Launch Center

Loading…

Nächste Überflüge (nächste 24 Stunden)

TLE

AktuellSource: Space-Track

Epoche: Sep 14, 2026, 23:16 UTC

1 55837U 23030B   26257.97011854  .00000364  00000-0  25308-3 0  9997
2 55837  98.9802 269.7896 0002360 305.6788  54.4160 14.05161457180385

Verfolge CZ-4C DEB in Echtzeit mit AllMySat

Download on the App Store